User: anonymous   Login
Location: Unspecified
(0.0000°N, 0.0000°E)
Time: 06:22:37
(UTC+00:00)
Language:

Kosmos-1333 - Orbit

View from above orbital plane
View from above orbital plane
View from above satellite
View from above satellite

Ground track
Ground track

The orbit data is extracted from the following two-line orbital elements,

1 13033U 82003A   18267.92144469 +.00000038 +00000-0 +24373-4 0  9990
2 13033 082.9384 090.1035 0033438 118.6881 043.1287 13.73212514838810
Epoch (UTC): 24 September 2018 22:06:52
Eccentricity: 0.0033438
inclination: 82.9384°
perigee height: 963 km
apogee height: 1012 km
right ascension of ascending node: 90.1035°
argument of perigee: 118.6881°
revolutions per day: 13.73212514
mean anomaly at epoch: 43.1287°
orbit number at epoch: 83881

The dashed part of the orbit path shows where the satellite is in the earth's shadow,  

DLR